Location: Tamazert
(32.6352°N, 5.2072°W)
Time: 17:23:26
(UTC+00:00)

Cosmos 1544 Rocket - Pass Details

Date: 22 May 2022
Orbit: 603 x 631 km, 82.5° (Epoch: 06 July)

Event Time Altitude Azimuth Distance (km) Brightness Sun altitude
Rises 03:16:09 0° 345° (NNW) 2,909 7.4 -22.0°
Reaches altitude 10° 03:18:28 10° 339° (NNW) 1,994 6.4 -21.6°
Enters shadow 03:22:20 42° 280° (W) 880 4.0 -21.0°
